www.pogodaiklimat.ru

Погода и климат >> Архив погоды >> Австралия >> Северная территория >> Манбуллу Ксиро


ПОГОДА в Манбуллу Ксиро

  • Прогноз погоды в Манбуллу Ксиро
  • Монитор погоды в Манбуллу Ксиро

АРХИВ ПОГОДЫ в Манбуллу Ксиро

Время (UTC), дата Ветер
(напр.,м/с)
 
Видим.   Явления Облачность Т
(С)
Тd
(С)
f
(%)
Тe
(С)
Тes
(С)
Комфортность P
(гПа)
Po
(гПа)
Тmin
(С)
Tmax
(С)
R
(мм)
R24
(мм)
S
(см)
08 14.07 ЮВ 6 н/о н/о +27.1 0.0 17 +25 +25 комфорт 1015.7 1006.8
11 14.07 ЮВ 4 н/о н/о +22.5 +0.4 23 +22 +22 комфорт 1018.7 1009.8
14 14.07 ЮВ 4 н/о н/о +20.8 +0.6 26 +21 +21 комфорт 1019.2 1010.3 +29.7
17 14.07 ЮВ 4 н/о н/о +19.3 -0.1 27 +19 +19 1019.0 1010.1
20 14.07 ЮВ 3 н/о н/о +17.5 -3.3 24 +18 +18 1019.5 1010.6
23 14.07 ЮВ 5 н/о н/о +19.2 -4.3 20 +19 +19 1021.0 1012.1
02 15.07 ЮВ 5 н/о н/о +23.7 -2.8 17 +22 +22 комфорт 1019.0 1010.1 +16.8
05 15.07 ЮВ 6 н/о н/о +27.0 -2.7 14 +24 +24 комфорт 1015.3 1006.4
08 15.07 ЮВ 5 н/о н/о +26.9 -4.9 12 +24 +24 комфорт 1014.9 1006.0
14 15.07 ЮВ 4 н/о н/о +21.2 -5.6 16 +20 +20 1018.3 1009.4 +28.1
17 15.07 ЮВ 3 н/о н/о +19.8 -5.2 18 +20 +20 1017.7 1008.8
20 15.07 В 2 н/о н/о +16.8 -5.0 22 +17 +17 1018.4 1009.5
23 15.07 ЮВ 6 н/о н/о +20.9 -6.7 15 +20 +20 1020.0 1011.1
02 16.07 ЮВ 6 н/о н/о +25.9 -6.8 11 +23 +23 комфорт 1017.9 1009.0 +14.5
05 16.07 ЮВ 5 н/о н/о +28.9 -7.1 9 +25 +25 комфорт 1014.9 1006.0
08 16.07 Ю 5 н/о н/о +28.5 -7.4 9 +25 +25 комфорт 1014.7 1005.8
11 16.07 штиль 0 н/о н/о +20.9 -5.8 16 +20 +20 1017.0 1008.1
14 16.07 ЮВ 4 н/о н/о +22.8 -3.5 17 +21 +21 комфорт 1017.4 1008.5 +30.3
17 16.07 ЮВ 4 н/о н/о +20.4 -1.4 23 +21 +21 комфорт 1016.6 1007.7
20 16.07 В 3 н/о н/о +18.4 -2.5 24 +19 +19 1016.7 1007.8
23 16.07 В 5 н/о н/о +21.6 -2.3 20 +21 +21 комфорт 1018.1 1009.2
08 17.07 ЮВ 5 н/о н/о +29.6 -6.6 9 +26 +26 жарко 1013.2 1004.4
11 17.07 В 2 н/о н/о +20.3 -4.8 18 +21 +21 комфорт 1015.5 1006.6
14 17.07 СВ 2 н/о н/о +20.6 -3.1 20 +21 +21 комфорт 1015.7 1006.8 +31.4
17 17.07 В 3 н/о н/о +19.6 -0.9 25 +20 +20 1015.4 1006.5
20 17.07 ЮВ 1 н/о н/о +13.4 -1.7 35 +15 +15 1015.9 1007.0
23 17.07 СВ 1 н/о н/о +21.0 +0.2 25 +23 +23 комфорт 1017.7 1008.8
02 18.07 ЮВ 6 н/о н/о +27.6 +0.4 17 +25 +25 комфорт 1016.2 1007.3 +12.7
05 18.07 В 4 н/о н/о +30.9 -1.8 12 +28 +28 жарко 1013.1 1004.3
14 18.07 С 3 н/о н/о +19.0 -2.0 24 +19 +19 1015.1 1006.2 +32.2
17 18.07 С 3 н/о н/о +17.9 +0.6 31 +18 +18 1014.4 1005.6
20 18.07 С 2 н/о н/о +13.9 -1.7 34 +14 +14 1015.1 1006.2
23 18.07 СВ 4 н/о н/о +22.4 +4.5 31 +23 +23 комфорт 1017.2 1008.3
02 19.07 В 6 н/о н/о +29.9 +3.0 18 +28 +28 жарко 1015.5 1006.6 +13.9
05 19.07 В 3 н/о н/о +33.0 -1.4 11 +29 +29 жарко 1012.2 1003.4
08 19.07 В 3 н/о н/о +33.0 -2.6 10 +29 +29 жарко 1012.2 1003.4
11 19.07 СВ 1 н/о н/о +21.9 +1.0 25 +21 +21 комфорт 1014.3 1005.5
14 19.07 С 3 н/о н/о +20.2 +1.1 28 +21 +21 комфорт 1015.3 1006.4 +34.3
17 19.07 С 3 н/о н/о +18.6 +4.0 38 +19 +19 1014.7 1005.8
20 19.07 СВ 2 н/о н/о +16.6 +4.6 45 +17 +17 1015.3 1006.4
23 19.07 В 2 н/о н/о +22.5 +5.4 33 +23 +23 комфорт 1017.1 1008.2
02 20.07 СВ 5 н/о н/о +30.7 +7.2 23 +29 +29 жарко 1015.9 1007.0 +15.5
05 20.07 СВ 3 н/о н/о +34.6 -1.4 10 +31 +31 жарко 1011.7 1002.9
08 20.07 ЮВ 5 н/о н/о +34.2 -1.7 10 +30 +30 жарко 1011.3 1002.5
11 20.07 СВ 2 н/о н/о +24.3 -0.1 20 +23 +23 комфорт 1013.1 1004.3
14 20.07 С 3 н/о н/о +21.4 0.0 24 +21 +21 комфорт 1013.8 1005.0 +36.2
17 20.07 С 3 н/о н/о +18.3 +0.4 30 +19 +19 1013.4 1004.6
20 20.07 С 4 н/о н/о +18.9 +1.4 31 +19 +19 1014.0 1005.2

 

Местоположение метеостанции Манбуллу Ксиро (Северная территория, Австралия): широта -14.95 долгота 130.80 высота над уровнем моря 76 м.

В архиве по умолчанию представлена погода в Манбуллу Ксиро за последнюю неделю. Архивные данные за месяц целиком и за предыдущие месяцы, начиная с января 2011 года, Вы можете получить, выбрав интересующий диапазон дат из раскрывающегося списка и нажав кнопку "Ввод!".


*Определитесь, кто Вы:
робот инопланетянин человек

Внимание! Время в таблицах - всемирное. Для получения местного времени необходимо прибавить поправку, которая равна 9.5 ч.

Смотрите также архив погоды в соседних городах и на ближайших метеорологических станциях:

Погода на Маяке Кейп-Дон (Северная территория, Австралия) (131 км)
Погода на Базе ВВС Delamere Weapons Range (Северная территория, Австралия) (149 км)
Погода в Порт Китс (Северная территория, Австралия) (157 км)
Погода в Виктория-Ривер (Северная территория, Австралия) (163 км)
Погода в Тиндале (Северная территория, Австралия) (175 км)
Погода в Батчелоре (Северная территория, Австралия) (213 км)
Погода в Кунунарре (Западная Австралия, Австралия) (242 км)
Погода на Острове Дам-ин-Мирре (Северная территория, Австралия) (262 км)
Погода в Милд Пойнт (Северная территория, Австралия) (267 км)
Погода в Дарвине (Северная территория, Австралия) (283 км)

Пояснения к столбцам:

Ветер - указаны скорость ветра в м/с - средняя за 10 мин, порывы в срок и между сроками (в фигурных скобках) и направление, откуда дует ветер: С - северный, СВ - северо-восточный, В - восточный, ЮВ - юго-восточный, Ю - южный, ЮЗ - юго-западный, З - западный, СЗ - северо-западный.
Видимость - горизонтальная дальность видимости в метрах или километрах. При видимости от 1 до 10 км при отсутствии осадков обычно наблюдается дымка, при ухудшении видимости до 1 км и менее - туман. В сухую погоду видимость может ухудшаться дымом, пылью или мглою.
Явления - указаны атмосферные явления, наблюдавшиеся в срок или в последний час перед сроком; фигурными скобками обозначены явления, наблюдавшиеся между сроками (за 1-3 часа до срока); квадратными скобками обозначены град или гололедные отложения с указанием их диаметра в мм.
Облачность - указаны через наклонную черту общая и нижняя облачность в баллах и высота нижней границы облаков в метрах; квадратными скобками обозначены формы облаков: Ci - перистые, Cs - перисто-слоистые, Cc - перисто-кучевые, Ac - высококучевые, As - высокослоистые, Sc - слоисто-кучевые, Ns - слоисто-дождевые, Cu - кучевые, Cb - кучево-дождевые. Подробнее классификацию облаков см. в Атласе облаков (PDF).
T - Температура воздуха - температура, измеренная на высоте 2 м над землей.
Td - Температура точки росы - температура, при понижении до которой содержащийся в воздухе водяной пар достигнет насыщения.
f - Относительная влажность воздуха - влажноcть воздуха, измеренная на высоте 2 м над землей.
Te - Эффективная температура - температура, которую ощущает одетый по сезону человек в тени. Характеристика душности погоды. При расчете учитывается влияние влажности воздуха и скорости ветра на теплоощущения человека.
Tes - Эффективная температура на солнце - температура, которую ощущает человек, с поправкой на солнечный нагрев. Характеристика знойности погоды. Зависит от высоты солнца над горизонтом, облачности и скорости ветра. Ночью, в пасмурную погоду, а также при ветре 12 м/с и более поправка равна нулю.
P - Атмосферное давление - приведенное к уровню моря атмосферное давление.
Po - Атмосферное давление - измеренное на уровне метеостанции атмосферное давление.
Tmin - Минимальная температура - минимум температуры воздуха на высоте 2 м над землей.
Tmax - Максимальная температура - максимум температуры воздуха на высоте 2 м над землей.
R - Количество осадков - Количество выпавших осадков за период времени, мм. При наведении курсора мыши на число - период времени, за который выпало указанное количество осадков.
R24 - Количество осадков - Количество выпавших осадков за 24 часа, мм.
S - Снежный покров - Высота снежного покрова, см. При наведении курсора мыши на число - состояние снежного покрова и степень покрытия местности в баллах.